Location: Ferintosh
(52.7647°N, 112.9692°W)
Time: 15:52:07
(UTC+00:00)

Transit 2A Rocket - Pass Details

Date: 24 May 2024
Orbit: 583 x 910 km, 66.7° (Epoch: 22 June)

Event Time Altitude Azimuth Distance (km) Brightness Sun altitude
Rises 20:40:30 0° 313° (NW) 3,438 8.3 55.3°
Reaches altitude 10° 20:43:31 10° 298° (WNW) 2,538 7.9 55.1°
Maximum altitude 20:47:45 21° 252° (WSW) 1,919 7.9 54.8°
Drops below altitude 10° 20:52:05 10° 206° (SSW) 2,590 8.5 54.4°
Sets 20:55:12 0° 191° (S) 3,528 8.9 54.1°
